STARLINK-33954 (63863 NORAD) Tracking and Keplerian Element Data

This shows tracking and keplerian element data for the satellite.

Feedback or suggestion? Click here.




ElementValue
Catalog63863
NameSTARLINK-33954
Epoch Orbit3559
Epoch Day354.20921566
Epoch Year2025
RAAN167.0059
Inclination42.9993
Eccentricity0.0001463
Argument of Perigee270.3455
Mean Anonmoly89.7229
Mean Motion15.27587022
Decay Rate0.00017071
L11 63863U 25093AD 25354.20921566 .00017071 00000+0 62829-3 0 9990
L22 63863 42.9993 167.0059 0001463 270.3455 89.7229 15.27587022 35590



Live tracking and technical data element details for STARLINK-33954 (NORAD 63863). STARLINK-33954 can be tracked NOW for your location showing map with azimuth and elevation plus other details from your city location.







IsCatalogInMostPopularTable: catalog: 63863, numindb: 3
Update: records affected: 1



GetName: 63863 STARLINK-33954

Hit Count: updated at: Mon, 09 Feb 2026 08:04:05 GMT